Regional Weather Roundup
Issued by NWS Cleveland, OH

Home | Current Version | Previous Version | Graphics & Text | Print | Product List | Glossary On
Versions: 1 2 3 4 5 6 7 8 9 10 11 12 13 14 15 16 17 18 19 20 21 22 23 24 25 26 27 28 29 30 31 32 33 34 35 36 37 38 39 40 41 42 43 44 45 46 47 48 49 50
547
ASUS41 KCLE 041810
RWRCLE
OHIO REGIONAL WEATHER ROUNDUP
NATIONAL WEATHER SERVICE CLEVELAND, OH
200 PM EDT WED MAY 04 2016

NOTE: "FAIR" INDICATES FEW OR NO CLOUDS BELOW 12,000 FEET WITH NO
SIGNIFICANT WEATHER AND/OR OBSTRUCTIONS TO VISIBILITY.

OHZ001>008-015>018-024>027-034-035-043-044-041900-
   NORTHWEST OHIO

CITY           SKY/WX    TMP DP  RH WIND       PRES   REMARKS
DEFIANCE       CLOUDY    51  43  74 NW12      29.60R
FINDLAY        CLOUDY    60  46  59 SW16G24   29.58F
TOLEDO EXPRESS CLOUDY    54  46  74 SW18G26   29.56S
TOLEDO EXEC    CLOUDY    57  49  74 S15G22    29.58F
LIMA           CLOUDY    49  47  93 W9        29.61R
$$

OHZ009>014-019>023-028>033-038-089-041900-
   NORTHEAST OHIO

CITY           SKY/WX    TMP DP  RH WIND       PRES   REMARKS
CLE-HOPKINS    LGT RAIN  56  44  64 W16       29.64S
CLE-LAKEFRONT  CLOUDY    65  35  33 SE5       29.60F
CUY CO. ARPT   PTSUNNY   66  43  42 S12       29.62F
LORAIN-ELYRIA  PTSUNNY   63  39  41 SW9       29.60F
ASHTABULA      MOSUNNY   63  37  38 E5        29.64F
AKRON-CANTON   PTSUNNY   62  34  35 CALM      29.62F
WOOSTER        LGT RAIN  56  44  64 SE14G24   29.62F
MANSFIELD      LGT RAIN  52  46  80 S12       29.62R
YOUNGSTOWN     CLOUDY    59  40  49 W10       29.64F
$$

OHZ042-051>053-060>062-070>072-077>081-041900-
  SOUTHWEST OHIO

CITY           SKY/WX    TMP DP  RH WIND       PRES   REMARKS
CINC-COVINGTON LGT RAIN  53  48  83 SW6       29.67F
CINC-LUNKEN    CLOUDY    54  50  86 SW9       29.68F
HAMILTON       CLOUDY    57  50  77 SW8       29.67F
DAYTON         LGT RAIN  51  47  86 W9        29.65S
WRIGHT-PAT AFB LGT RAIN  53  49  88 S8        29.63F
DAYTON GENERAL CLOUDY    52  47  83 S13G18    29.65F
WILMINGTON     LGT RAIN  51  46  83 SW15      29.67F
$$

OHZ036-037-039>041-045>050-054>059-063>069-073>076-082>088-041900-
  CENTRAL AND SOUTHEAST OHIO

CITY           SKY/WX    TMP DP  RH WIND       PRES   REMARKS
COLUMBUS       CLOUDY    60  41  49 SW17G29   29.62F
OSU AIRPORT    CLOUDY    59  44  57 SW18G28   29.61F
BOLTON FIELD   CLOUDY    57  45  62 SW18G25   29.64S
RICKENBACK AFB CLOUDY    60  44  56 W21G29    29.63S
NEWARK         LGT RAIN  57  44  62 SW12      29.63R
MARION         CLOUDY    58  43  57 SW15G23   29.61F
LANCASTER      CLOUDY    60  45  57 W17G25    29.63F
ZANESVILLE     CLOUDY    59  43  55 SE10      29.64F
NEW PHILLY     PTSUNNY   65  37  35 S6        29.62F
$$




USA.gov is the U.S. government's official web portal to all federal, state and local government web resources and services.